Amsterdam Airport Schiphol

Airport
ICAO code: 
EHAM
IATA Code: 
AMS
Summary
ICAO Region: 
EUR
Territory: 
Location: 
Haarlemmermeer, Noord-Holland
Serving: 
Amsterdam
Elevation: 
-11 ft
Coordinates: 
Aerial View: 
52° 18' 31.007" N, 4° 45' 50" E
Airport BS: 
Bird Strike
Airport LOS: 
Parallel Runway Operation
Metar
Observation
EHAM 190155Z 16002KT 0250 R18C/0375N R27/0325N R18R/0300N R06/0350N FG BKN001 01/01 Q1030 BECMG SCT001
Station
Amsterdam Airport Schiphol
Date/Time
2022-01-19 01:55:00
Wind direction
160°
Wind speed
02 kts
Lowest cloud amount
broken clouds
Temperature
1°C
Dew point
1°C
Humidity
100%
QNH
1030 hPa
Weather condition
n/a

Amsterdam Airport Schiphol is the Netherlands' main international airport, located 4.9 nm southwest of Amsterdam, in the municipality of Haarlemmermeer. The airport used to have the IATA code of SPL, which has fallen into disuse and has been replaced by AMS.

Climatology

Temperate Marine climate/Oceanic climate (Köppen climate classification Cfb). Moderately cool summer and comparatively warm winter with a temperature range of only 14°C. Prevailing south-westerly winds from the Atlantic Ocean.

Runways

Designator Length Width Surface Rops
4/22 2014 45 ASP Yes/Yes
18C/36C 3300 45 ASP Yes/Yes
18L/36R 3400 45 ASP Yes/Yes
9/27 3453 45 ASP Yes/Yes
6/24 3500 45 ASP Yes/Yes
18R/36L 3800 60 ASP Yes/Yes

SKYbrary Partners:

Safety knowledge contributed by: